H1 CPF 2 NER 2024 7 31 9 213 01 glonass116 H2 0907001 9116 36111 2024 7 31 0 0 0 2024 8 3 23 45 0 900 1 1 0 0 0 1 H9 10 0 60522 0.00000 0 16104577.784 -16980186.608 10162128.221 10 0 60522 900.00000 0 16882789.892 -17728574.209 7187798.462 10 0 60522 1800.00000 0 17319497.705 -18288491.760 4073936.574 10 0 60522 2700.00000 0 17436296.536 -18608014.398 880992.866 10 0 60522 3600.00000 0 17265974.144 -18642429.571 -2329053.989 10 0 60522 4500.00000 0 16850931.202 -18356280.131 -5493899.614 10 0 60522 5400.00000 0 16241212.303 -17725033.841 -8552122.521 10 0 60522 6300.00000 0 15492231.151 -16736308.458 -11444375.040 10 0 60522 7200.00000 0 14662286.291 -15390600.219 -14114533.314 10 0 60522 8100.00000 0 13809972.418 -13701484.397 -16510784.101 10 0 60522 9000.00000 0 12991596.457 -11695278.612 -18586627.454 10 0 60522 9900.00000 0 12258707.262 -9410182.103 -20301776.083 10 0 60522 10800.00000 0 11655842.756 -6894925.867 -21622934.394 10 0 60522 11700.00000 0 11218589.136 -4206988.866 -22524442.532 10 0 60522 12600.00000 0 10972033.545 -1410453.478 -22988773.377 10 0 60522 13500.00000 0 10929675.117 1426411.789 -23006873.209 10 0 60522 14400.00000 0 11092840.164 4233743.074 -22578339.595 10 0 60522 15300.00000 0 11450626.212 6942738.903 -21711433.022 10 0 60522 16200.00000 0 11980377.547 9488275.602 -20422921.774 10 0 60522 17100.00000 0 12648672.755 11811372.658 -18737762.554 10 0 60522 18000.00000 0 13412783.225 13861406.314 -16688622.411 10 0 60522 18900.00000 0 14222541.782 15597979.911 -14315250.491 10 0 60522 19800.00000 0 15022543.189 16992373.588 -11663711.063 10 0 60522 20700.00000 0 15754584.032 18028513.210 -8785492.126 10 0 60522 21600.00000 0 16360239.083 18703418.440 -5736506.457 10 0 60522 22500.00000 0 16783465.133 19027111.635 -2576004.367 10 0 60522 23400.00000 0 16973121.799 19021991.864 634580.591 10 0 60522 24300.00000 0 16885301.992 18721701.026 3832830.105 10 0 60522 25200.00000 0 16485372.633 18169530.524 6956559.925 10 0 60522 26100.00000 0 15749638.332 17416436.478 9945034.523 10 0 60522 27000.00000 0 14666556.667 16518748.094 12740153.235 10 0 60522 27900.00000 0 13237452.725 15535666.718 15287584.148 10 0 60522 28800.00000 0 11476701.800 14526661.930 17537823.102 10 0 60522 29700.00000 0 9411371.662 13548875.139 19447156.976 10 0 60522 30600.00000 0 7080338.594 12654640.579 20978512.460 10 0 60522 31500.00000 0 4532913.547 11889228.376 22102174.031 10 0 60522 32400.00000 0 1827035.207 11288904.632 22796357.596 10 0 60522 33300.00000 0 -972895.248 10879389.902 23047629.190 10 0 60522 34200.00000 0 -3798448.078 10674780.418 22851161.186 10 0 60522 35100.00000 0 -6579766.978 10676976.864 22210821.555 10 0 60522 36000.00000 0 -9248231.718 10875644.109 21139094.893 10 0 60522 36900.00000 0 -11739071.509 11248703.017 19656836.996 10 0 60522 37800.00000 0 -13993821.389 11763333.169 17792867.842 10 0 60522 38700.00000 0 -15962520.422 12377443.940 15583410.823 10 0 60522 39600.00000 0 -17605561.205 13041551.715 13071388.932 10 0 60522 40500.00000 0 -18895114.669 13700983.999 10305591.362 10 0 60522 41400.00000 0 -19816071.767 14298317.403 7339726.442 10 0 60522 42300.00000 0 -20366463.766 14775946.526 4231379.167 10 0 60522 43200.00000 0 -20557344.604 15078675.216 1040893.504 10 0 60522 44100.00000 0 -20412141.249 15156220.609 -2169798.823 10 0 60522 45000.00000 0 -19965500.281 14965523.964 -5338380.155 10 0 60522 45900.00000 0 -19261680.005 14472770.356 -8403355.827 10 0 60522 46800.00000 0 -18352556.443 13655031.545 -11305246.596 10 0 60522 47700.00000 0 -17295327.636 12501462.151 -13987741.267 10 0 60522 48600.00000 0 -16150013.234 11013998.041 -16398787.176 10 0 60522 49500.00000 0 -14976854.724 9207526.659 -18491597.548 10 0 60522 50400.00000 0 -13833725.614 7109521.156 -20225556.415 10 0 60522 51300.00000 0 -12773660.252 4759152.485 -21567003.994 10 0 60522 52200.00000 0 -11842604.742 2205915.298 -22489887.724 10 0 60522 53100.00000 0 -11077484.033 -492176.335 -22976266.783 10 0 60522 54000.00000 0 -10504665.901 -3270749.567 -23016660.653 10 0 60522 54900.00000 0 -10138885.904 -6061501.282 -22610235.158 10 0 60522 55800.00000 0 -9982678.219 -8794794.717 -21764822.353 10 0 60522 56700.00000 0 -10026336.114 -11402317.518 -20496773.601 10 0 60522 57600.00000 0 -10248403.740 -13819691.769 -18830648.238 10 0 60522 58500.00000 0 -10616678.715 -15988928.247 -16798743.192 10 0 60522 59400.00000 0 -11089683.531 -17860623.444 -14440471.973 10 0 60522 60300.00000 0 -11618543.975 -19395808.245 -11801604.319 10 0 60522 61200.00000 0 -12149195.517 -20567371.395 -8933380.653 10 0 60522 62100.00000 0 -12624824.456 -21360998.516 -5891518.120 10 0 60522 63000.00000 0 -12988440.467 -21775587.557 -2735127.289 10 0 60522 63900.00000 0 -13185471.283 -21823123.504 474439.270 10 0 60522 64800.00000 0 -13166269.043 -21528017.997 3674783.796 10 0 60522 65700.00000 0 -12888421.366 -20925942.116 6803681.699 10 0 60522 66600.00000 0 -12318768.343 -20062202.097 9800296.988 10 0 60522 67500.00000 0 -11435039.038 -18989727.155 12606370.403 10 0 60522 68400.00000 0 -10227037.248 -17766754.941 15167356.442 10 0 60522 69300.00000 0 -8697325.384 -16454312.944 17433486.619 10 0 60522 70200.00000 0 -6861376.658 -15113602.523 19360737.986 10 0 60522 71100.00000 0 -4747188.185 -13803396.169 20911688.035 10 0 60522 72000.00000 0 -2394370.409 -12577557.672 22056239.567 10 0 60522 72900.00000 0 147249.848 -11482789.427 22772201.827 10 0 60522 73800.00000 0 2819455.102 -10556701.122 23045717.167 10 0 60522 74700.00000 0 5557816.199 -9826280.377 22871525.510 10 0 60522 75600.00000 0 8294134.605 -9306828.749 22253062.025 10 0 60522 76500.00000 0 10959047.039 -9001406.887 21202386.539 10 0 60522 77400.00000 0 13484684.917 -8900811.242 19739946.323 10 0 60522 78300.00000 0 15807278.756 -8984082.415 17894176.977 10 0 60522 79200.00000 0 17869600.064 -9219522.999 15700949.067 10 0 60522 80100.00000 0 19623139.820 -9566181.406 13202871.125 10 0 60522 81000.00000 0 21029933.644 -9975738.670 10448462.307 10 0 60522 81900.00000 0 22063958.337 -10394718.238 7491210.537 10 0 60522 82800.00000 0 22712042.274 -10766925.176 4388534.293 10 0 60522 83700.00000 0 22974252.402 -11036011.507 1200668.126 10 0 60522 84600.00000 0 22863742.461 -11148059.001 -2010506.455 10 0 60522 85500.00000 0 22406069.544 -11054069.971 -5182661.837 10 0 60523 0.00000 0 21638008.515 -10712260.507 -8254233.194 10 0 60523 900.00000 0 20605914.228 -10090058.569 -11165613.396 10 0 60523 1800.00000 0 19363701.965 -9165722.587 -13860306.522 10 0 60523 2700.00000 0 17970529.923 -7929510.997 -16286023.093 10 0 60523 3600.00000 0 16488282.223 -6384353.050 -18395691.789 10 0 60523 4500.00000 0 14978957.751 -4545991.548 -20148369.908 10 0 60523 5400.00000 0 13502074.252 -2442590.390 -21510035.072 10 0 60523 6300.00000 0 12112196.132 -113822.063 -22454243.251 10 0 60523 7200.00000 0 10856689.148 2390528.179 -22962640.791 10 0 60523 8100.00000 0 9773795.421 5012384.658 -23025320.867 10 0 60523 9000.00000 0 8891108.860 7687555.692 -22641017.680 10 0 60523 9900.00000 0 8224514.288 10348170.975 -21817134.582 10 0 60523 10800.00000 0 7777634.288 12925281.780 -20569605.388 10 0 60523 11700.00000 0 7541806.578 15351517.003 -18922591.055 10 0 60523 12600.00000 0 7496592.670 17563685.338 -16908017.023 10 0 60523 13500.00000 0 7610796.231 19505215.923 -14564959.422 10 0 60523 14400.00000 0 7843948.219 21128336.143 -11938891.334 10 0 60523 15300.00000 0 8148196.081 22395895.858 -9080803.122 10 0 60523 16200.00000 0 8470517.072 23282761.906 -6046213.454 10 0 60523 17100.00000 0 8755161.880 23776724.486 -2894090.016 10 0 60523 18000.00000 0 8946224.686 23878877.412 314298.978 10 0 60523 18900.00000 0 8990230.215 23603456.374 3516579.837 10 0 60523 19800.00000 0 8838627.374 22977142.180 6650491.167 10 0 60523 20700.00000 0 8450082.906 22037858.677 9655099.979 10 0 60523 21600.00000 0 7792476.907 20833116.395 12471991.701 10 0 60523 22500.00000 0 6844514.659 19417972.254 15046410.283 10 0 60523 23400.00000 0 5596885.612 17852691.780 17328325.639 10 0 60523 24300.00000 0 4052919.514 16200212.780 19273407.370 10 0 60523 25200.00000 0 2228711.073 14523517.486 20843885.773 10 0 60523 26100.00000 0 152706.951 12883023.806 22009283.551 10 0 60523 27000.00000 0 -2135228.452 11334105.135 22747004.423 10 0 60523 27900.00000 0 -4585230.194 9924842.387 23042767.706 10 0 60523 28800.00000 0 -7139274.495 8694101.908 22890881.003 10 0 60523 29700.00000 0 -9733368.917 7670018.937 22294346.247 10 0 60523 30600.00000 0 -12300000.505 6868949.111 21264797.476 10 0 60523 31500.00000 0 -14770740.668 6294930.846 19822271.846 10 0 60523 32400.00000 0 -17078899.085 5939679.923 17994818.414 10 0 60523 33300.00000 0 -19162116.884 5783115.404 15817952.251 10 0 60523 34200.00000 0 -20964791.717 5794393.705 13333964.336 10 0 60523 35100.00000 0 -22440234.297 5933406.430 10591100.386 10 0 60523 36000.00000 0 -23552467.056 6152678.092 7642624.325 10 0 60523 36900.00000 0 -24277590.333 6399583.059 4545784.451 10 0 60523 37800.00000 0 -24604659.568 6618787.601 1360702.267 10 0 60523 38700.00000 0 -24536037.308 6754813.425 -1850794.435 10 0 60523 39600.00000 0 -24087205.824 6754613.919 -5026371.422 10 0 60523 40500.00000 0 -23286048.715 6570053.774 -8104397.356 10 0 60523 41400.00000 0 -22171632.098 6160186.743 -11025138.965 10 0 60523 42300.00000 0 -20792536.932 5493234.799 -13731918.721 10 0 60523 43200.00000 0 -19204812.731 4548184.554 -16172212.535 10 0 60523 44100.00000 0 -17469638.617 3315932.908 -18298666.333 10 0 60523 45000.00000 0 -15650789.742 1799932.820 -20070012.018 10 0 60523 45900.00000 0 -13812014.995 16311.036 -21451865.456 10 0 60523 46800.00000 0 -12014435.344 -2006548.426 -22417391.471 10 0 60523 47700.00000 0 -10314071.120 -4228938.906 -22947823.393 10 0 60523 48600.00000 0 -8759600.981 -6601246.264 -23032827.443 10 0 60523 49500.00000 0 -7390445.453 -9065787.037 -22670705.112 10 0 60523 50400.00000 0 -6235254.481 -11558994.392 -21868429.610 10 0 60523 51300.00000 0 -5310861.509 -14013862.195 -20641515.434 10 0 60523 52200.00000 0 -4621747.213 -16362546.630 -19013723.156 10 0 60523 53100.00000 0 -4160034.849 -18539017.900 -17016604.514 10 0 60523 54000.00000 0 -3906016.904 -20481652.241 -14688895.918 10 0 60523 54900.00000 0 -3829190.557 -22135656.509 -12075771.383 10 0 60523 55800.00000 0 -3889757.989 -23455224.246 -9227968.778 10 0 60523 56700.00000 0 -4040527.876 -24405333.004 -6200805.883 10 0 60523 57600.00000 0 -4229137.358 -24963107.477 -3053105.141 10 0 60523 58500.00000 0 -4400499.921 -25118691.037 153951.904 10 0 60523 59400.00000 0 -4499374.929 -24875588.868 3358017.871 10 0 60523 60300.00000 0 -4472949.124 -24250468.161 6496796.775 10 0 60523 61200.00000 0 -4273319.808 -23272423.821 9509260.802 10 0 60523 62100.00000 0 -3859773.486 -21981740.738 12336842.191 10 0 60523 63000.00000 0 -3200762.460 -20428205.035 14924576.398 10 0 60523 63900.00000 0 -2275494.710 -18669035.711 17222173.667 10 0 60523 64800.00000 0 -1075068.886 -16766524.040 19184997.908 10 0 60523 65700.00000 0 396894.444 -14785480.180 20774933.746 10 0 60523 66600.00000 0 2124152.770 -12790594.325 21961125.038 10 0 60523 67500.00000 0 4078277.925 -10843822.972 22720570.914 10 0 60523 68400.00000 0 6219611.233 -9001909.437 23038568.271 10 0 60523 69300.00000 0 8498698.302 -7314141.786 22908992.679 10 0 60523 70200.00000 0 10858144.294 -5820441.143 22334412.816 10 0 60523 71100.00000 0 13234812.970 -4549859.161 21326036.625 10 0 60523 72000.00000 0 15562278.498 -3519546.334 19903490.551 10 0 60523 72900.00000 0 17773428.471 -2734232.914 18094436.247 10 0 60523 73800.00000 0 19803110.289 -2186242.836 15934032.164 10 0 60523 74700.00000 0 21590711.081 -1856038.728 13464250.302 10 0 60523 75600.00000 0 23082564.022 -1713273.872 10733061.207 10 0 60523 76500.00000 0 24234081.032 -1718305.788 7793502.749 10 0 60523 77400.00000 0 25011523.055 -1824106.721 4702650.666 10 0 60523 78300.00000 0 25393334.225 -1978489.661 1520510.733 10 0 60523 79200.00000 0 25370984.357 -2126555.241 -1691145.903 10 0 60523 80100.00000 0 24949284.741 -2213255.543 -4869981.467 10 0 60523 81000.00000 0 24146164.281 -2185965.965 -7954300.964 10 0 60523 81900.00000 0 22991915.607 -1996955.922 -10884248.602 10 0 60523 82800.00000 0 21527942.968 -1605653.538 -13602967.874 10 0 60523 83700.00000 0 19805064.528 -980608.150 -16057702.768 10 0 60523 84600.00000 0 17881440.189 -101067.224 -18200818.888 10 0 60523 85500.00000 0 15820211.610 1041899.463 -19990724.884 10 0 60524 0.00000 0 13686953.038 2444776.425 -21392676.633 10 0 60524 900.00000 0 11547037.917 4091507.876 -22379449.655 10 0 60524 1800.00000 0 9463033.531 5953935.201 -22931865.423 10 0 60524 2700.00000 0 7492227.918 7992751.970 -23039164.190 10 0 60524 3600.00000 0 5684394.242 10158936.257 -22699215.396 10 0 60524 4500.00000 0 4079883.943 12395602.538 -21918562.384 10 0 60524 5400.00000 0 2708127.584 14640197.197 -20712300.230 10 0 60524 6300.00000 0 1586605.156 16826947.326 -19103788.591 10 0 60524 7200.00000 0 720328.197 18889461.651 -17124204.552 10 0 60524 8100.00000 0 101854.675 20763375.823 -14811943.418 10 0 60524 9000.00000 0 -288164.574 22388932.075 -12211878.321 10 0 60524 9900.00000 0 -479931.412 23713385.498 -9374492.400 10 0 60524 10800.00000 0 -512982.925 24693136.162 -6354899.920 10 0 60524 11700.00000 0 -434275.512 25295497.391 -3211775.104 10 0 60524 12600.00000 0 -295952.132 25500025.584 -6209.578 10 0 60524 13500.00000 0 -152887.914 25299355.248 3199479.040 10 0 60524 14400.00000 0 -60118.852 24699503.745 6342963.731 10 0 60524 15300.00000 0 -70263.468 23719632.643 9363125.402 10 0 60524 16200.00000 0 -231047.622 22391275.547 12201246.572 10 0 60524 17100.00000 0 -583038.319 20757064.918 14802157.485 10 0 60524 18000.00000 0 -1157683.379 18869011.511 17115311.775 10 0 60524 18900.00000 0 -1975740.825 16786408.937 19095770.425 10 0 60524 19800.00000 0 -3046165.149 14573451.440 20705074.818 10 0 60524 20700.00000 0 -4365498.248 12296664.863 21911992.026 10 0 60524 21600.00000 0 -5917791.423 10022258.313 22693118.237 10 0 60524 22500.00000 0 -7675062.465 7813506.962 23033329.105 10 0 60524 23400.00000 0 -9598269.329 5728274.858 22926068.841 10 0 60524 24300.00000 0 -11638760.355 3816780.342 22373472.975 10 0 60524 25200.00000 0 -13740141.030 2119696.308 21386322.876 10 0 60524 26100.00000 0 -15840479.932 666663.388 19983833.184 10 0 60524 27000.00000 0 -17874762.343 -524723.266 18193276.451 10 0 60524 27900.00000 0 -19777489.655 -1449412.716 16049452.221 10 0 60524 28800.00000 0 -21485316.443 -2114863.101 13594010.733 10 0 60524 29700.00000 0 -22939615.478 -2540475.579 10874644.147 10 0 60524 30600.00000 0 -24088863.727 -2756522.412 7944160.754 10 0 60524 31500.00000 0 -24890749.730 -2802615.530 4859460.000 10 0 60524 32400.00000 0 -25313914.277 -2725781.092 1680428.119 10 0 60524 33300.00000 0 -25339251.544 -2578222.151 -1531224.192 10 0 60524 34200.00000 0 -24960716.161 -2414864.629 -4713159.339 10 0 60524 35100.00000 0 -24185602.421 -2290790.888 -7803622.242 10 0 60524 36000.00000 0 -23034283.878 -2258669.885 -10742637.958 10 0 60524 36900.00000 0 -21539424.239 -2366292.978 -13473174.105 10 0 60524 37800.00000 0 -19744692.518 -2654319.893 -15942245.517 10 0 60524 38700.00000 0 -17703036.098 -3154330.472 -18101939.836 10 0 60524 39600.00000 0 -15474583.685 -3887264.869 -19910344.333 10 0 60524 40500.00000 0 -13124265.441 -4862318.521 -21332356.402 10 0 60524 41400.00000 0 -10719249.084 -6076339.162 -22340362.445 10 0 60524 42300.00000 0 -8326298.277 -7513752.146 -22914772.416 10 0 60524 43200.00000 0 -6009162.634 -9147018.343 -23044400.045 10 0 60524 44100.00000 0 -3826107.143 -10937606.676 -22726681.605 10 0 60524 45000.00000 0 -1827683.059 -12837441.938 -21967728.987 10 0 60524 45900.00000 0 -54832.156 -14790768.695 -20782215.852 10 0 60524 46800.00000 0 1462597.529 -16736354.620 -19193098.652 10 0 60524 47700.00000 0 2706863.369 -18609942.252 -17231177.300 10 0 60524 48600.00000 0 3672825.772 -20346847.492 -14934503.316 10 0 60524 49500.00000 0 4367911.659 -21884596.701 -12347646.183 10 0 60524 50400.00000 0 4811546.049 -23165492.161 -9520831.508 10 0 60524 51300.00000 0 5034076.311 -24138998.297 -6508967.258 10 0 60524 52200.00000 0 5075235.107 -24763848.192 -3370576.705 10 0 60524 53100.00000 0 4982207.602 -25009781.359 -166658.913 10 0 60524 54000.00000 0 4807385.417 -24858839.089 3040500.806 10 0 60524 54900.00000 0 4605903.212 -24306162.212 6188546.806 10 0 60524 55800.00000 0 4433063.102 -23360257.119 9216270.988 10 0 60524 56700.00000 0 4341756.958 -22042718.391 12064808.253 10 0 60524 57600.00000 0 4379996.697 -20387419.356 14678785.557 10 0 60524 58500.00000 0 4588658.020 -18439204.466 17007401.615 10 0 60524 59400.00000 0 4999533.875 -16252138.336 19005415.920 10 0 60524 60300.00000 0 5633780.642 -13887384.848 20634027.770 10 0 60524 61200.00000 0 6500823.270 -11410805.194 21861628.285 10 0 60524 62100.00000 0 7597766.094 -8890375.148 22664411.223 10 0 60524 63000.00000 0 8909334.678 -6393529.217 23026831.200 10 0 60524 63900.00000 0 10408351.627 -3984542.012 22941900.971 10 0 60524 64800.00000 0 12056726.930 -1722055.302 22411322.567 10 0 60524 65700.00000 0 13806921.857 343147.147 21445450.193 10 0 60524 66600.00000 0 15603825.611 2170025.367 20063085.903 10 0 60524 67500.00000 0 17386966.712 3728752.320 18291112.180 10 0 60524 68400.00000 0 19092967.067 5001706.594 16163968.527 10 0 60524 69300.00000 0 20658136.423 5983948.635 13722982.098 10 0 60524 70200.00000 0 22021098.958 6683162.189 11015565.139 10 0 60524 71100.00000 0 23125342.238 7119064.858 8094294.611 10 0 60524 72000.00000 0 23921581.856 7322313.889 5015891.678 10 0 60524 72900.00000 0 24369842.629 7332954.445 1840120.799 10 0 60524 73800.00000 0 24441169.011 7198476.809 -1371370.223 10 0 60524 74700.00000 0 24118892.793 6971565.329 -4556246.568 10 0 60524 75600.00000 0 23399404.703 6707634.897 -7652695.749 10 0 60524 76500.00000 0 22292397.308 6462259.578 -10600626.345 10 0 60524 77400.00000 0 20820568.738 6288602.505 -13342832.691 10 0 60524 78300.00000 0 19018799.339 6234955.955 -15826102.925 10 0 60524 79200.00000 0 16932835.341 6342495.802 -18002249.002 10 0 60524 80100.00000 0 14617534.155 6643345.371 -19829038.905 10 0 60524 81000.00000 0 12134744.033 7159030.706 -21271013.353 10 0 60524 81900.00000 0 9550905.911 7899392.737 -22300171.608 10 0 60524 82800.00000 0 6934476.626 8862002.716 -22896513.497 10 0 60524 83700.00000 0 4353279.955 10032106.275 -23048427.538 10 0 60524 84600.00000 0 1871894.728 11383099.407 -22752917.873 10 0 60524 85500.00000 0 -450812.252 12877517.495 -22015665.639 10 0 60525 0.00000 0 -2563906.661 14468496.972 -20850923.525 10 0 60525 900.00000 0 -4426270.115 16101650.426 -19281244.443 10 0 60525 1800.00000 0 -6008066.276 17717275.518 -17337050.645 10 0 60525 2700.00000 0 -7291733.021 19252808.874 -15056048.841 10 0 60525 3600.00000 0 -8272457.175 20645420.627 -12482503.387 10 0 60525 4500.00000 0 -8958113.783 21834641.876 -9666380.471 10 0 60525 5400.00000 0 -9368673.026 22764914.607 -6662379.492 10 0 60525 6300.00000 0 -9535100.446 23387956.617 -3528870.178 10 0 60525 7200.00000 0 -9497797.564 23664841.354 -326756.151 10 0 60525 8100.00000 0 -9304649.520 23567704.435 2881712.675 10 0 60525 9000.00000 0 -9008763.103 23081004.130 6034155.274 10 0 60525 9900.00000 0 -8665991.783 22202281.895 9069277.883 10 0 60525 10800.00000 0 -8332353.397 20942390.204 11928071.143 10 0 60525 11700.00000 0 -8061450.757 19325177.435 14554962.031 10 0 60525 12600.00000 0 -7902005.156 17386642.612 16898897.540 10 0 60525 13500.00000 0 -7895607.884 15173595.140 18914338.700 10 0 60525 14400.00000 0 -8074785.379 12741875.482 20562145.503 10 0 60525 15300.00000 0 -8461460.227 10154211.102 21810335.620 10 0 60525 16200.00000 0 -9065873.278 7477797.075 22634702.531 10 0 60525 17100.00000 0 -9886012.582 4781702.016 23019281.547 10 0 60525 18000.00000 0 -10907573.438 2134207.056 22956655.241 10 0 60525 18900.00000 0 -12104451.456 -399811.937 22448092.896 10 0 60525 19800.00000 0 -13439748.216 -2761350.822 21503521.734 10 0 60525 20700.00000 0 -14867247.612 -4899490.640 20141330.799 10 0 60525 21600.00000 0 -16333301.282 -6773267.194 18388011.487 10 0 60525 22500.00000 0 -17779044.426 -8353120.204 16277641.637 10 0 60525 23400.00000 0 -19142849.360 -9621863.035 13851223.140 10 0 60525 24300.00000 0 -20362914.196 -10575134.023 11155885.670 10 0 60525 25200.00000 0 -21379878.193 -11221311.982 8243971.776 10 0 60525 26100.00000 0 -22139354.043 -11580900.855 5172020.946 10 0 60525 27000.00000 0 -22594270.741 -11685410.690 1999672.242 10 0 60525 27900.00000 0 -22706928.431 -11575783.162 -1211493.187 10 0 60525 28800.00000 0 -22450678.643 -11300428.993 -4399147.131 10 0 60525 29700.00000 0 -21811158.994 -10912960.854 -7501423.524 10 0 60525 30600.00000 0 -20787030.054 -10469718.105 -10458118.225 10 0 60525 31500.00000 0 -19390183.008 -10027188.343 -13211855.901 10 0 60525 32400.00000 0 -17645408.851 -9639434.980 -15709201.373 10 0 60525 33300.00000 0 -15589542.379 -9355639.662 -17901693.958 10 0 60525 34200.00000 0 -13270116.153 -9217863.329 -19746784.952 10 0 60525 35100.00000 0 -10743579.920 -9259120.471 -21208660.457 10 0 60525 36000.00000 0 -8073158.942 -9501847.801 -22258934.010 10 0 60525 36900.00000 0 -5326439.579 -9956832.101 -22877196.048 10 0 60525 37800.00000 0 -2572781.634 -10622642.675 -23051409.930 10 0 60525 38700.00000 0 119335.989 -11485592.832 -22778147.069 10 0 60525 39600.00000 0 2684926.991 -12520232.762 -22062656.668 10 0 60525 40500.00000 0 5064959.220 -13690353.944 -20918768.521 10 0 60525 41400.00000 0 7208564.713 -14950463.935 -19368630.339 10 0 60525 42300.00000 0 9074907.101 -16247670.527 -17442284.121 10 0 60525 43200.00000 0 10634629.433 -17523897.017 -15177089.067 10 0 60525 44100.00000 0 11870822.738 -18718336.209 -12617001.494 10 0 60525 45000.00000 0 12779475.510 -19770040.338 -9811725.082 10 0 60525 45900.00000 0 13369385.955 -20620538.073 -6815747.449 10 0 60525 46800.00000 0 13661541.382 -21216368.187 -3687281.496 10 0 60525 47700.00000 0 13687991.535 -21511422.616 -487132.123 10 0 60525 48600.00000 0 13490264.120 -21468999.406 2722489.364 10 0 60525 49500.00000 0 13117390.248 -21063478.065 5879179.624 10 0 60525 50400.00000 0 12623624.076 -20281545.719 8921562.067 10 0 60525 51300.00000 0 12065953.980 -19122921.418 11790485.630 10 0 60525 52200.00000 0 11501511.415 -17600547.201 14430179.519 10 0 60525 53100.00000 0 10984987.849 -15740237.129 16789340.838 10 0 60525 54000.00000 0 10566169.677 -13579798.402 18822133.581 10 0 60525 54900.00000 0 10287695.798 -11167660.892 20489079.455 10 0 60525 55800.00000 0 10183132.885 -8561072.104 21757823.282 10 0 60525 56700.00000 0 10275449.717 -5823932.610 22603758.469 10 0 60525 57600.00000 0 10575954.930 -3024361.877 23010500.874 10 0 60525 58500.00000 0 11083742.851 -232095.482 22970202.407 10 0 60525 59400.00000 0 11785670.660 2484178.570 22483698.842 10 0 60525 60300.00000 0 12656867.769 5059434.357 21560489.436 10 0 60525 61200.00000 0 13661755.990 7434765.581 20218549.067 10 0 60525 62100.00000 0 14755537.650 9559584.964 18483976.727 10 0 60525 63000.00000 0 15886089.275 11393475.229 16390487.161 10 0 60525 63900.00000 0 16996181.362 12907615.789 13978755.451 10 0 60525 64800.00000 0 18025931.113 14085727.057 11295627.019 10 0 60525 65700.00000 0 18915385.105 14924494.282 8393208.198 10 0 60525 66600.00000 0 19607123.275 15433454.550 5327854.841 10 0 60525 67500.00000 0 20048774.621 15634352.986 2159078.511 10 0 60525 68400.00000 0 20195338.540 15559996.413 -1051608.533 10 0 60525 69300.00000 0 20011213.821 15252653.739 -4241887.004 10 0 60525 70200.00000 0 19471849.506 14762071.354 -7349839.615 10 0 60525 71100.00000 0 18564947.689 14143187.912 -10315151.833 10 0 60525 72000.00000 0 17291167.077 13453645.411 -13080280.911 10 0 60525 72900.00000 0 15664297.119 12751201.909 -15591570.487 10 0 60525 73800.00000 0 13710894.600 12091155.174 -17800289.236 10 0 60525 74700.00000 0 11469397.101 11523885.950 -19663573.631 10 0 60525 75600.00000 0 8988749.435 11092624.283 -21145256.880 10 0 60525 76500.00000 0 6326599.389 10831532.877 -22216568.401 10 0 60525 77400.00000 0 3547136.915 10764188.087 -22856690.707 10 0 60525 78300.00000 0 718665.576 10902522.388 -23053163.281 10 0 60525 79200.00000 0 -2088993.913 11246272.964 -22802125.859 10 0 60525 80100.00000 0 -4807161.268 11782959.833 -22108396.457 10 0 60525 81000.00000 0 -7370905.996 12488394.937 -20985382.462 10 0 60525 81900.00000 0 -9721501.156 13327701.357 -19454826.118 10 0 60525 82800.00000 0 -11808620.310 14256800.526 -17546388.755 10 0 60525 83700.00000 0 -13592187.033 15224305.533 -15297081.131 10 0 60525 84600.00000 0 -15043800.563 16173741.467 -12750550.185 10 0 60525 85500.00000 0 -16147678.600 17045999.663 -9956235.400 99